Location: Asheville, NC
(35.6000°N, 82.5500°W)
Time: 23:44:41

AO-7 - Pass Details

Date: 16 March 2018
Orbit: 1440 x 1459 km, 101.7° (Epoch: 19 March)

Event Time Altitude Azimuth Distance (km) Brightness Sun altitude
Rises 04:59:40 0° 18° (NNE) 4,542 ? -32.5°
Reaches altitude 10° 05:02:28 10° 20° (NNE) 3,559 ? -32.0°
Maximum altitude 05:10:46 75° 105° (ESE) 1,484 ? -30.4°
Enters shadow 05:15:16 31° 186° (S) 2,305 ? -29.6°
